Regional Weather Roundup
Issued by NWS

Home | Current Version | Previous Version | Graphics & Text | Print | Product List | Glossary On
Versions: 1 2 3 4 5 6 7 8 9 10 11 12 13 14 15 16 17 18 19 20 21 22 23 24 25 26 27 28 29 30 31 32 33 34 35 36 37 38 39 40 41 42 43 44 45 46 47 48 49 50
000
ASUS43 KIND 190459
RWRIN

WEATHER ROUNDUP FOR INDIANA
NATIONAL WEATHER SERVICE INDIANAPOLIS IN
1200 AM EST FRI JAN 19 2018

NOTE: "FAIR" INDICATES FEW OR NO CLOUDS BELOW 12,000 FEET WITH NO
SIGNIFICANT WEATHER AND/OR OBSTRUCTIONS TO VISIBILITY.

* - STATION DOES NOT REPORT WEATHER SUCH AS PRECIPITATION OR FOG.

+ - STATION NOT QUALITY CONTROLLED BY THE NATIONAL WEATHER SERVICE.
    USE DATA WITH CAUTION...ESPECIALLY DEWPOINT AND RELATIVE
    HUMIDITY OBSERVATIONS.

INZ001>003-010>013-019-020-190600-
NORTHWEST INDIANA

CITY           SKY/WX    TMP DP  RH WIND       PRES   REMARKS
KNOX *+        FAIR      25  18  74 SW12      30.05S WCI  14
MICHIGAN CITY+ FAIR      27  19  74 S9G17     30.02F WCI  17
MONTICELLO +   FAIR      24  14  64 SW13      30.07S WCI  13
RENSSELAER +   FAIR      27  16  63 SW16      30.07S WCI  14

$$

LMZ046-743>745-190600-
SOUTHERN LAKE MICHIGAN

STATION/POSITION TIME  TEMP    WIND        PRES    WAVE
                       AIR SEA DIR/SP/G            HT
                 (UTC) (F)     (DEG/KT/KT) (MB)    (FT)
BURNS HARBOR     0440   28     200/ 16/ 19 1016.9R
MICHIGAN CITY    0430   29     190/ 19/ 22   N/A

$$

INZ004-005-014>016-021>024-190600-
NORTH CENTRAL INDIANA

CITY           SKY/WX    TMP DP  RH WIND       PRES   REMARKS
GOSHEN         FAIR      23  14  68 SW13      30.02F WCI  11
PERU/GRISSOM   FAIR      24  15  68 SW14      30.07S WCI  11
SOUTH BEND     FAIR      23  15  71 SW15G22   30.02F WCI  10

$$

INZ006>009-017-018-025>027-190600-
NORTHEAST INDIANA

CITY           SKY/WX    TMP DP  RH WIND       PRES   REMARKS
FORT WAYNE     FAIR      24  14  65 SW14      30.06F WCI  12
KENDALLVILLE + FAIR      25  15  68 SW16      30.01F WCI  12

$$

INZ028-029-035-036-043>045-051>053-190600-
WEST CENTRAL INDIANA

CITY           SKY/WX    TMP DP  RH WIND       PRES   REMARKS
CRAWFORDSVL +  FAIR      22  13  68 MISG        N/A
GREENCASTLE +  FAIR      25  10  54 S9G16     30.15S WCI  15
LAFAYETTE      FAIR      24  14  65 SW10      30.11S WCI  14
TERRE HAUTE    FAIR      22  11  62 S10       30.18F WCI  11

$$

INZ030>032-037>040-046>048-054>057-064-065-190600-
CENTRAL INDIANA

CITY           SKY/WX    TMP DP  RH WIND       PRES   REMARKS
GREENWOOD *+   FAIR      24  12  59 S8        30.16F WCI  15
INDIANAPOLIS   FAIR      23  11  60 SW12      30.14F WCI  12
-EAGLE CREEK   FAIR      25  11  55 SW10      30.13F WCI  15
MT COMFORT *+  FAIR      23  14  68 SW10      30.13F WCI  12
SHELBYVILLE    FAIR      22  10  60 S13       30.15F WCI  10

$$

INZ033-034-041-042-049-050-058-059-190600-
EAST CENTRAL INDIANA

CITY           SKY/WX    TMP DP  RH WIND       PRES   REMARKS
MUNCIE         FAIR      26  11  52 SW15      30.09F WCI  14
RICHMOND +     FAIR      21  12  68 SW13      30.14F WCI   9

$$

INZ060-061-067>069-081>083-085>088-190600-
SOUTHWEST INDIANA

CITY           SKY/WX    TMP DP  RH WIND       PRES   REMARKS
EVANSVILLE     FAIR      23  13  65 SW9       30.26F WCI  13
HUNTINGBURG +  FAIR      20  12  71 S9        30.25F WCI   9

$$

INZ062-063-066-070>080-084-089>092-190600-
SOUTH CENTRAL AND SOUTHEAST INDIANA

CITY           SKY/WX    TMP DP  RH WIND       PRES   REMARKS
BLOOMINGTON    FAIR      25  10  53 SW13      30.17F WCI  14
FRENCH LICK *+ FAIR      25   9  50 SW7       30.22F WCI  17
MADISON *+     FAIR      23  12  63 S7        30.24F WCI  15
SEYMOUR +      FAIR      25  10  54 S8        30.22F WCI  16

$$





USA.gov is the U.S. government's official web portal to all federal, state and local government web resources and services.